Location: Oberkirch
(48.5323°N, 8.0787°E)
Time: 05:30:07
(UTC+00:00)

Tiros 1 - Pass Details

Date: 18 February 2026
Orbit: 618 x 650 km, 48.4° (Epoch: 13 March)

Event Time Altitude Azimuth Distance (km) Brightness Sun altitude
Rises 13:27:02 0° 284° (WNW) 2,893 10.7 25.6°
Reaches altitude 10° 13:29:31 10° 275° (W) 1,983 10.1 25.4°
Maximum altitude 13:33:35 33° 212° (SSW) 1,044 10.9 25.1°
Drops below altitude 10° 13:37:38 10° 148° (SSE) 1,974 10.1 24.7°
Sets 13:40:06 0° 139° (SE) 2,878 10.7 24.5°
